Date,TemperatureHighF,TemperatureAvgF,TemperatureLowF,DewpointHighF,DewpointAvgF,DewpointLowF,HumidityHigh,HumidityAvg,HumidityLow,PressureMaxIn,PressureMinIn,WindSpeedMaxMPH,WindSpeedAvgMPH,GustSpeedMaxMPH,PrecipitationSumIn
2013-5-1,75.7,63.2,51.5,57.0,49.8,37.0,90,65,39,30.28,30.16,6,1,8,0.00
2013-5-2,77.5,63.5,49.8,51.0,39.8,34.0,64,44,22,30.33,30.17,6,1,10,0.00
2013-5-3,73.8,62.2,49.4,49.0,42.2,37.0,67,49,33,30.23,30.12,8,2,16,0.00
2013-5-4,69.9,58.9,45.9,46.0,41.3,36.0,71,53,36,30.17,30.06,6,1,9,0.00
2013-5-5,73.4,60.1,47.3,43.0,36.8,24.0,77,47,18,30.13,29.99,7,2,10,0.00
2013-5-6,69.0,58.7,45.3,54.0,47.1,36.0,83,66,51,30.07,29.97,5,1,11,0.00
2013-5-7,67.6,60.2,55.7,59.0,55.3,52.0,91,84,67,30.01,29.93,6,1,12,0.15
2013-5-8,72.4,62.7,52.6,56.0,52.5,47.0,96,72,41,29.97,29.87,5,1,8,0.15
2013-5-9,76.8,64.4,53.8,57.0,53.1,47.0,93,70,38,29.97,29.88,9,2,13,0.00
2013-5-10,75.0,62.5,56.5,64.0,57.9,52.0,95,85,65,29.97,29.78,9,2,22,0.73
2013-5-11,60.1,55.7,49.4,59.0,53.1,46.0,96,90,82,29.82,29.75,9,3,12,0.11
2013-5-12,51.0,46.2,36.5,48.0,33.3,28.0,91,63,43,30.07,29.82,19,7,23,0.00
2013-5-13,51.0,42.6,32.4,31.0,27.0,22.0,81,56,35,30.19,30.06,14,4,18,0.00
2013-5-14,62.0,47.1,27.8,44.0,35.1,25.0,91,66,42,30.20,29.90,6,1,10,0.00
2013-5-15,84.1,68.8,51.6,64.0,55.3,41.0,79,63,47,29.90,29.70,16,4,28,0.00
2013-5-16,77.5,69.3,61.2,62.0,57.3,48.0,94,69,36,29.93,29.74,8,3,14,0.30
2013-5-17,81.0,68.0,57.2,64.0,57.9,48.0,96,73,42,30.08,29.93,6,1,8,0.00
2013-5-18,82.7,69.1,55.3,63.0,55.7,44.0,83,64,44,30.10,29.99,4,0,5,0.00
2013-5-19,76.8,68.0,58.7,66.0,61.8,57.0,94,81,68,30.07,29.93,4,1,6,0.00
2013-5-20,85.7,73.0,59.7,71.0,65.3,58.0,96,78,57,30.00,29.87,5,1,10,0.00
2013-5-21,85.9,75.0,64.8,72.0,67.1,62.0,96,78,56,29.92,29.78,7,2,18,0.03
2013-5-22,85.6,71.8,62.9,69.0,63.9,60.0,91,77,52,29.85,29.73,6,2,16,0.00
2013-5-23,74.1,63.7,48.0,65.0,60.4,46.0,96,89,68,29.88,29.73,13,2,22,0.88
2013-5-24,47.7,43.9,38.7,46.0,37.9,33.0,94,80,63,30.30,29.89,11,3,18,0.02
2013-5-25,60.8,46.9,32.2,40.0,34.9,30.0,93,67,39,30.34,30.24,7,2,16,0.00
2013-5-26,66.9,52.6,38.0,43.0,36.3,32.0,79,57,35,30.30,30.21,5,1,13,0.00
2013-5-28,80.1,72.6,59.6,69.0,64.0,58.0,95,75,61,30.07,29.96,8,1,15,0.11
2013-5-29,85.0,75.2,67.3,67.0,62.7,60.0,82,66,51,30.05,29.98,15,2,16,0.00
2013-5-30,88.1,76.1,63.2,70.0,64.7,59.0,88,69,49,30.15,30.04,5,0,12,0.00
2013-5-31,87.5,75.8,64.6,70.0,65.0,62.0,95,71,50,30.08,29.94,8,1,11,0.00